This is the latest recevied weather packets stored in our database for station/object KG5TTF. If no packets are shown the sender has not sent any weather packets the latest 10 day(s).
| Time | Temp. | Humidity | Pressure | Rain* | Wind** | Luminosity | Snow |
|---|---|---|---|---|---|---|---|
| 1777860892 | 14.44° C | 30% | 1017.5 hPa | 0 mm | - | 0 W/m² | - |
| 1777860589 | 14.44° C | 30% | 1017.5 hPa | 0 mm | - | 0 W/m² | - |
| 1777860285 | 15° C | 30% | 1017.4 hPa | 0 mm | - | 0 W/m² | - |
| 1777859982 | 15° C | 29% | 1017.4 hPa | 0 mm | - | 1 W/m² | - |
| 1777859678 | 15° C | 29% | 1017.4 hPa | 0 mm | - | 2 W/m² | - |
| 1777859374 | 15° C | 29% | 1017.5 hPa | 0 mm | - | 2 W/m² | - |
| 1777859070 | 15° C | 28% | 1017.2 hPa | 0 mm | - | 3 W/m² | - |
| 1777858767 | 15.56° C | 28% | 1017.4 hPa | 0 mm | - | 5 W/m² | - |
| 1777858466 | 15.56° C | 28% | 1017.4 hPa | 0 mm | - | 8 W/m² | - |
| 1777858166 | 15.56° C | 27% | 1017.2 hPa | 0 mm | - | 10 W/m² | - |
| 1777857865 | 15.56° C | 27% | 1017.1 hPa | 0 mm | - | 14 W/m² | - |
| 1777857562 | 16.11° C | 27% | 1017.4 hPa | 0 mm | - | 17 W/m² | - |
| 1777857259 | 16.11° C | 25% | 1017.1 hPa | 0 mm | - | 19 W/m² | - |
| 1777856954 | 16.11° C | 26% | 1017 hPa | 0 mm | - | 20 W/m² | - |
| 1777856650 | 16.67° C | 26% | 1017.1 hPa | 0 mm | - | 22 W/m² | - |
| 1777856347 | 16.67° C | 25% | 1017.1 hPa | 0 mm | - | 21 W/m² | - |
| 1777856043 | 16.67° C | 25% | 1017.2 hPa | 0 mm | - | 20 W/m² | - |
| 1777855741 | 16.67° C | 25% | 1017 hPa | 0 mm | - | 23 W/m² | - |
| 1777855439 | 16.67° C | 25% | 1017.1 hPa | 0 mm | - | 29 W/m² | - |
| 1777855135 | 17.22° C | 25% | 1017 hPa | 0 mm | - | 43 W/m² | - |
| 1777854832 | 17.22° C | 25% | 1016.9 hPa | 0 mm | - | 54 W/m² | - |
| 1777854528 | 17.78° C | 23% | 1016.9 hPa | 0 mm | - | 66 W/m² | - |
| 1777854225 | 18.33° C | 21% | 1017 hPa | 0 mm | - | 78 W/m² | - |
| 1777853923 | 18.33° C | 20% | 1016.9 hPa | 0 mm | - | 87 W/m² | - |
| 1777853620 | 18.33° C | 18% | 1017 hPa | 0 mm | - | 96 W/m² | - |
* Rain latest hour (hover to see other rain measurements)
** Current wind speed in m/s (hover to see current wind gust speed)